Location: Paddlesworth
(51.1000°N, 1.1333°E)
Time: 12:41:49
(UTC+00:00)

Cosmos 2082 Rocket - Pass Details

Date: 11 May 2021
Orbit: 834 x 853 km, 71.0° (Epoch: 19 June)

Event Time Altitude Azimuth Distance (km) Brightness Sun altitude
Rises 21:34:38 0° 329° (NNW) 3,394 7.3 -14.5°
Reaches altitude 10° 21:37:05 10° 328° (NNW) 2,456 6.1 -14.7°
Maximum altitude 21:42:42 76° 244° (WSW) 866 2.2 -15.2°
Enters shadow 21:46:16 23° 162° (SSE) 1,698 3.2 -15.5°
